Weather Roundup
Issued by NWS

Home | Current Version | Previous Version | Graphics & Text | Print | Product List | Glossary Off
Versions: 1 2 3 4 5 6 7 8 9 10 11 12 13 14 15 16 17 18 19 20 21 22 23 24 25 26 27 28 29 30 31 32 33 34 35 36 37 38 39 40 41 42 43 44 45 46 47 48 49 50

000
NZUS93 KARX 190110
HRRWXR

CURRENT HOURLY OBSERVATIONS ACROSS
MUCH OF THE UPPER MISSISSIPPI VALLEY
NATIONAL WEATHER SERVICE LA CROSSE WI
800 PM CDT WED OCT 18 2017


...SOUTHEAST MINNESOTA...


CITY           SKY/WX    TMP DP  RH WIND       PRES   REMARKS
ROCHESTER      PTCLDY    55  44  66 W8        29.98R
ROCHESTER/MAYO FAIR      63  38  39 W9        29.96R
WINONA         CLEAR     64  45  48 W5        29.93R
AUSTIN         CLOUDY    61  37  41 NW6       29.98R
ALBERT LEA     NOT AVBL
DODGE CENTER   CLOUDY    55  36  47 W7        29.98R
PRESTON        CLEAR     61  45  56 W9        29.98R
OWATONNA       CLEAR     54  36  50 W8        29.99R
FARIBAULT      CLEAR     57  28  33 W7        29.99R
$$

...ELSEWHERE IN MINNESOTA...


CITY           SKY/WX    TMP DP  RH WIND       PRES   REMARKS
MINNEAPOLIS    MOCLDY    59  23  25 W15G23    29.96R
INTNL FALLS    CLEAR     52  15  23 W14G25    29.71R
DULUTH         CLOUDY    49  20  31 W12       29.81R
RED WING       CLOUDY    63  21  20 NW8       29.93R
REDWOOD FALLS  CLOUDY    54  24  31 NW8       30.02R
MANKATO        CLEAR     57  29  34 W7        30.00R
WORTHINGTON    CLOUDY    51  34  52 W3        30.05R
FAIRMONT       CLEAR     55  36  48 NW7       30.03R
$$

...SOUTHWEST WISCONSIN...


CITY           SKY/WX    TMP DP  RH WIND       PRES   REMARKS
LA CROSSE      CLEAR     66  49  54 W9        29.92R
PRAIRIE DU CHI CLOUDY    65  46  50 S3        29.96S
BOSCOBEL       CLOUDY    65  47  52 SW8       29.96R
LONE ROCK      CLEAR     64  48  56 SW7       29.96R
PLATTEVILLE    CLEAR     58  48  69 SW9       30.00R
FORT MC COY    CLOUDY    57  48  73 CALM      29.92R
CAMP DOUGLAS   PTCLDY    66  48  52 SW9       29.90R
MAUSTON-NEW LI CLEAR     65  47  53 S5        29.91S
VIROQUA        FAIR      61  48  62 SW8       29.95R
WIS DELLS      CLEAR     62  45  52 SW12      29.94S
$$

...ELSEWHERE IN WISCONSIN...


CITY           SKY/WX    TMP DP  RH WIND       PRES   REMARKS
MILWAUKEE      MOCLDY    65  42  43 SW16      29.98R
MADISON        CLEAR     65  44  46 SW9       29.97R
GREEN BAY      CLEAR     64  47  53 SW14G25   29.87S
EAU CLAIRE     CLEAR     60  40  47 W10       29.89R
BLACK RVR FLS  FAIR      64  45  50 W6        29.91R
MEDFORD        CLEAR     59  46  61 SW8       29.86R
WAUSAU         CLEAR     63  48  58 SW13      29.84R
WIS RAPIDS     CLEAR     63  48  58 SW8       29.89R
MARSHFIELD     CLEAR     61  47  59 W12       29.87R
RICE LAKE      CLOUDY    58  22  24 W9        29.90R
$$

...NORTHEAST IOWA...


CITY           SKY/WX    TMP DP  RH WIND       PRES   REMARKS
WATERLOO       CLEAR     59  48  67 SW6       29.98R
DUBUQUE        CLEAR     58  47  66 SW10      30.01R
DECORAH        CLEAR     64  48  55 CALM      29.96R
MASON CITY     CLEAR     53  42  66 W5        30.01R
CHARLES CITY   PTCLDY    54  48  82 W5        29.98R
OELWEIN        CLEAR     61  48  63 S9        29.99R
$$

...ELSEWHERE IN IOWA...


CITY           SKY/WX    TMP DP  RH WIND       PRES   REMARKS
DES MOINES     MOCLDY    66  48  52 SW8       30.00R
IOWA CITY      CLEAR     60  47  61 CALM      30.03R
FORT DODGE     CLEAR     54  45  71 CALM      30.01R
MARSHALLTOWN   CLEAR     64  49  57 S8        29.99R
CEDAR RAPIDS   CLEAR     60  47  61 S5        30.01R
$$

...NORTHERN ILLINOIS...


CITY           SKY/WX    TMP DP  RH WIND       PRES   REMARKS
CHICAGO-OHARE  MOCLDY    64  41  42 S12       30.03S
CHICAGO-MIDWAY CLOUDY    65  42  43 S14       30.05R
MOLINE         CLEAR     62  43  49 S9        30.01R
ROCKFORD       PTCLDY    58  43  57 S12       30.01R
PEORIA         CLEAR     60  44  55 S9        30.05S
$$

NOTE: "FAIR" INDICATES FEW OR NO CLOUDS BELOW 12,000 FEET WITH NO
SIGNIFICANT WEATHER AND/OR OBSTRUCTIONS TO VISIBILITY. WIND
SPEEDS ARE IN MILES-PER-HOUR.




USA.gov is the U.S. government's official web portal to all federal, state and local government web resources and services.